contact:dominique.lefevre@mio.osupytheas.fr, maurice.libes@osupytheas.fr, didier.mallarino@osupytheas.fr
Project:EMSO http://www.emso-fr.org/EMSO-France
Depth: 2436.0 m
Title:EMSO Ligure Ouest : Data MII capteur AQUADOPP
Date,Latitude,Longitude,X_East,Y_North,Z_Up,Amplitude_X,Amplitude_Y,Amplitude_Z,Batterie,SoundSpeed,Heading,Pitch,Roll,Pressure,TIS,Speed,Direction
, degrees North, degrees East, m.s-1, m.s-1,m.s-1, 1, 1, 1, Volt, m.s-1, degree, degree, degree, dbar, degree_C, m.s-1, degree
2020-03-15T00:04:03,42.805,6.029,-0.048,0.015,-0.049,102.0,104.0,101.0,13.4,1505.2,327.4,-0.7,1.8,2470.372,13.3,0.05,287.4
2020-03-15T00:07:03,42.805,6.029,-0.024,-0.008,-0.069,102.0,104.0,101.0,13.3,1505.3,326.9,-0.7,1.8,2470.388,13.31,0.025,251.6
2020-03-15T00:10:02,42.805,6.029,-0.019,-0.012,-0.047,101.0,105.0,101.0,13.4,1505.3,324.1,-0.7,1.9,2470.407,13.32,0.022,237.7
2020-03-15T00:13:03,42.805,6.029,-0.02,0.006,-0.078,103.0,104.0,101.0,13.4,1505.3,328.4,-0.7,1.8,2470.391,13.32,0.02,286.7
2020-03-15T00:16:03,42.805,6.029,-0.04,-0.009,-0.04,103.0,105.0,101.0,13.3,1505.3,326.7,-0.7,1.9,2470.377,13.32,0.041,257.3
2020-03-15T00:19:03,42.805,6.029,-0.029,-0.015,-0.049,104.0,104.0,102.0,13.3,1505.3,325.1,-0.7,1.9,2470.396,13.32,0.032,242.6
2020-03-15T00:22:03,42.805,6.029,-0.019,0.006,-0.032,102.0,104.0,100.0,13.4,1505.3,326.8,-0.7,1.8,2470.401,13.32,0.019,287.5
2020-03-15T00:25:03,42.805,6.029,-0.048,-0.01,-0.036,102.0,103.0,101.0,13.3,1505.3,323.1,-0.7,1.8,2470.375,13.32,0.049,258.2
2020-03-15T00:28:03,42.805,6.029,-0.015,0.0,-0.029,103.0,104.0,101.0,13.4,1505.3,327.9,-0.7,1.8,2470.384,13.32,0.015,270.0
2020-03-15T00:31:03,42.805,6.029,-0.036,-0.011,-0.026,103.0,105.0,100.0,13.4,1505.3,324.7,-0.8,1.8,2470.373,13.32,0.037,253.0
2020-03-15T00:34:03,42.805,6.029,-0.006,-0.013,-0.05,103.0,104.0,101.0,13.4,1505.3,323.3,-0.7,1.8,2470.379,13.32,0.014,204.8
2020-03-15T00:37:03,42.805,6.029,-0.01,0.008,-0.027,103.0,103.0,101.0,13.4,1505.3,325.6,-0.7,1.8,2470.368,13.32,0.012,308.7
2020-03-15T00:40:03,42.805,6.029,-0.009,-0.009,-0.033,103.0,104.0,100.0,13.4,1505.3,327.0,-0.7,1.9,2470.365,13.32,0.012,225.0
2020-03-15T00:43:03,42.805,6.029,-0.052,0.0,0.0,103.0,106.0,100.0,13.3,1505.3,326.5,-0.7,1.8,2470.356,13.32,0.052,270.0
2020-03-15T00:46:03,42.805,6.029,-0.012,-0.032,-0.052,103.0,104.0,101.0,13.3,1505.3,325.6,-0.7,1.8,2470.396,13.32,0.034,200.6
2020-03-15T00:49:03,42.805,6.029,-0.047,-0.008,-0.039,103.0,104.0,100.0,13.4,1505.3,324.7,-0.7,1.9,2470.33,13.32,0.047,260.3
2020-03-15T00:52:03,42.805,6.029,-0.035,0.003,-0.039,103.0,104.0,100.0,13.4,1505.3,325.7,-0.7,1.8,2470.343,13.32,0.035,274.9
2020-03-15T00:55:03,42.805,6.029,-0.017,0.002,-0.045,103.0,104.0,100.0,13.4,1505.3,328.2,-0.7,1.8,2470.356,13.32,0.017,276.7
2020-03-15T00:58:03,42.805,6.029,-0.034,-0.024,-0.065,104.0,105.0,100.0,13.4,1505.3,323.0,-0.7,1.8,2470.357,13.32,0.041,234.8
2020-03-15T01:04:03,42.805,6.029,-0.041,0.017,-0.047,105.0,107.0,102.0,13.3,1505.2,325.9,-0.7,1.8,2470.354,13.3,0.044,292.5
2020-03-15T01:07:03,42.805,6.029,-0.042,-0.017,-0.028,104.0,105.0,99.0,13.4,1505.3,326.9,-0.7,1.8,2470.374,13.31,0.045,248.0
2020-03-15T01:10:03,42.805,6.029,-0.027,-0.004,-0.06,102.0,104.0,101.0,13.4,1505.3,328.2,-0.7,1.8,2470.401,13.32,0.027,261.6
2020-03-15T01:13:03,42.805,6.029,-0.016,0.001,-0.063,103.0,104.0,101.0,13.4,1505.3,322.8,-0.7,1.8,2470.369,13.32,0.016,273.6
2020-03-15T01:16:03,42.805,6.029,-0.022,0.003,-0.05,103.0,104.0,101.0,13.4,1505.3,325.7,-0.7,1.8,2470.381,13.32,0.022,277.8
2020-03-15T01:19:03,42.805,6.029,-0.017,-0.004,-0.009,103.0,104.0,102.0,13.3,1505.3,326.1,-0.7,1.8,2470.326,13.32,0.017,256.8
2020-03-15T01:22:03,42.805,6.029,-0.02,-0.005,-0.031,102.0,104.0,100.0,13.4,1505.3,324.7,-0.7,1.8,2470.361,13.32,0.02,256.0
2020-03-15T01:25:03,42.805,6.029,-0.03,0.012,-0.016,103.0,104.0,101.0,13.4,1505.3,326.5,-0.7,1.8,2470.291,13.32,0.032,291.8
2020-03-15T01:28:03,42.805,6.029,-0.026,0.005,-0.016,103.0,105.0,101.0,13.4,1505.3,325.0,-0.7,1.8,2470.346,13.32,0.026,280.9
2020-03-15T01:31:03,42.805,6.029,-0.034,0.012,-0.041,105.0,104.0,100.0,13.4,1505.3,326.0,-0.7,1.8,2470.323,13.32,0.036,289.4
2020-03-15T01:34:03,42.805,6.029,-0.022,0.0,-0.044,103.0,104.0,102.0,13.4,1505.3,323.2,-0.7,1.8,2470.365,13.32,0.022,270.0
2020-03-15T01:37:03,42.805,6.029,-0.014,0.011,-0.032,104.0,104.0,102.0,13.4,1505.3,323.2,-0.7,1.8,2470.356,13.32,0.017,308.2
2020-03-15T01:40:03,42.805,6.029,-0.018,0.015,-0.035,103.0,105.0,101.0,13.4,1505.3,326.8,-0.7,1.8,2470.349,13.32,0.023,309.8
2020-03-15T01:43:03,42.805,6.029,-0.011,0.004,-0.066,105.0,104.0,101.0,13.3,1505.3,324.5,-0.7,1.9,2470.333,13.32,0.011,290.0
2020-03-15T01:46:03,42.805,6.029,-0.009,-0.02,-0.053,105.0,104.0,103.0,13.4,1505.3,326.8,-0.7,1.9,2470.325,13.32,0.021,204.2
2020-03-15T01:49:03,42.805,6.029,-0.038,-0.002,-0.057,103.0,103.0,101.0,13.4,1505.3,323.8,-0.7,1.8,2470.312,13.32,0.038,267.0
2020-03-15T01:52:03,42.805,6.029,-0.035,0.0,-0.051,103.0,105.0,100.0,13.4,1505.3,325.9,-0.7,1.8,2470.314,13.32,0.035,270.0
2020-03-15T01:55:03,42.805,6.029,-0.014,0.004,-0.003,104.0,105.0,100.0,13.4,1505.3,322.9,-0.7,1.8,2470.326,13.32,0.014,285.9
2020-03-15T01:58:03,42.805,6.029,-0.042,-0.01,-0.023,103.0,104.0,102.0,13.4,1505.3,327.1,-0.7,1.8,2470.289,13.32,0.043,256.6
2020-03-15T02:04:03,42.805,6.029,-0.02,0.022,-0.043,104.0,105.0,101.0,13.4,1505.2,326.9,-0.7,1.8,2470.377,13.3,0.029,317.7
2020-03-15T02:07:03,42.805,6.029,-0.049,-0.016,-0.067,104.0,104.0,100.0,13.4,1505.3,324.7,-0.7,1.8,2470.307,13.31,0.051,251.9
2020-03-15T02:10:03,42.805,6.029,-0.01,-0.013,-0.03,103.0,104.0,100.0,13.4,1505.3,325.0,-0.7,1.8,2470.341,13.32,0.016,217.6
2020-03-15T02:13:03,42.805,6.029,-0.053,0.021,-0.048,102.0,105.0,100.0,13.4,1505.3,327.7,-0.8,1.8,2470.327,13.32,0.057,291.6
2020-03-15T02:16:03,42.805,6.029,-0.031,0.0,-0.02,102.0,104.0,101.0,13.4,1505.3,327.3,-0.7,1.8,2470.312,13.32,0.03,270.0
2020-03-15T02:19:03,42.805,6.029,-0.013,-0.017,-0.044,103.0,105.0,101.0,13.4,1505.3,326.3,-0.7,1.8,2470.3,13.32,0.021,217.4
2020-03-15T02:22:03,42.805,6.029,-0.012,-0.004,-0.04,103.0,103.0,100.0,13.4,1505.3,328.1,-0.7,1.8,2470.29,13.32,0.012,251.6
2020-03-15T02:25:03,42.805,6.029,-0.022,0.028,-0.021,103.0,104.0,100.0,13.4,1505.3,324.9,-0.7,1.8,2470.312,13.32,0.035,321.8
2020-03-15T02:28:03,42.805,6.029,-0.046,-0.01,-0.062,104.0,105.0,100.0,13.4,1505.3,327.2,-0.7,1.9,2470.282,13.32,0.047,257.7
2020-03-15T02:31:03,42.805,6.029,-0.026,-0.007,-0.044,103.0,104.0,101.0,13.4,1505.3,323.6,-0.7,1.8,2470.335,13.32,0.026,254.9
2020-03-15T02:34:03,42.805,6.029,-0.04,-0.015,-0.042,104.0,104.0,101.0,13.4,1505.3,324.1,-0.7,1.8,2470.279,13.32,0.042,249.4
2020-03-15T02:37:03,42.805,6.029,-0.029,-0.003,-0.032,104.0,104.0,101.0,13.3,1505.3,323.0,-0.7,1.8,2470.3,13.32,0.029,264.1
2020-03-15T02:40:03,42.805,6.029,-0.03,0.0,-0.04,104.0,105.0,101.0,13.3,1505.3,326.5,-0.7,1.8,2470.315,13.32,0.03,270.0
2020-03-15T02:43:03,42.805,6.029,-0.04,0.004,-0.049,103.0,104.0,101.0,13.4,1505.3,325.9,-0.7,1.8,2470.269,13.32,0.04,275.7
2020-03-15T02:46:03,42.805,6.029,-0.018,-0.003,-0.026,104.0,106.0,100.0,13.3,1505.3,328.2,-0.7,1.8,2470.277,13.32,0.018,260.5
2020-03-15T02:49:03,42.805,6.029,-0.032,-0.002,-0.06,103.0,103.0,101.0,13.3,1505.3,327.6,-0.7,1.8,2470.312,13.32,0.032,266.4
2020-03-15T02:52:03,42.805,6.029,-0.056,0.024,-0.059,103.0,105.0,101.0,13.4,1505.3,326.0,-0.7,1.8,2470.308,13.32,0.06,293.2
2020-03-15T02:55:03,42.805,6.029,-0.069,0.003,-0.058,103.0,105.0,101.0,13.3,1505.3,328.5,-0.7,1.8,2470.319,13.32,0.069,272.5
2020-03-15T02:58:03,42.805,6.029,-0.057,-0.005,-0.037,103.0,105.0,101.0,13.4,1505.3,323.4,-0.7,1.8,2470.334,13.32,0.057,265.0
2020-03-15T03:04:03,42.805,6.029,-0.043,-0.008,-0.049,102.0,105.0,101.0,13.4,1505.2,327.0,-0.7,1.9,2470.355,13.3,0.043,259.5
2020-03-15T03:07:03,42.805,6.029,-0.028,0.001,-0.026,103.0,103.0,101.0,13.3,1505.3,326.3,-0.7,1.8,2470.314,13.31,0.028,272.0
2020-03-15T03:10:03,42.805,6.029,-0.04,0.006,-0.05,104.0,103.0,100.0,13.4,1505.3,328.6,-0.7,1.9,2470.313,13.32,0.04,278.5
2020-03-15T03:13:03,42.805,6.029,-0.039,0.0,-0.044,104.0,105.0,100.0,13.4,1505.3,322.9,-0.7,1.8,2470.343,13.32,0.039,270.0
2020-03-15T03:16:03,42.805,6.029,-0.058,0.0,-0.039,103.0,105.0,100.0,13.3,1505.3,326.6,-0.7,1.9,2470.334,13.32,0.057,270.0
2020-03-15T03:19:03,42.805,6.029,-0.024,-0.008,-0.063,103.0,105.0,101.0,13.4,1505.3,326.7,-0.7,1.8,2470.289,13.32,0.025,251.6
2020-03-15T03:22:03,42.805,6.029,-0.031,0.0,-0.038,104.0,105.0,102.0,13.4,1505.3,328.0,-0.7,1.9,2470.297,13.32,0.03,270.0
2020-03-15T03:25:03,42.805,6.029,-0.017,-0.009,-0.043,103.0,104.0,101.0,13.4,1505.3,327.0,-0.7,1.8,2470.3,13.32,0.019,242.1
2020-03-15T03:28:03,42.805,6.029,-0.048,0.022,-0.039,103.0,105.0,100.0,13.4,1505.3,326.0,-0.7,1.8,2470.293,13.32,0.052,294.6
2020-03-15T03:31:03,42.805,6.029,-0.041,-0.007,-0.068,105.0,105.0,101.0,13.4,1505.3,322.9,-0.7,1.9,2470.278,13.32,0.041,260.3
2020-03-15T03:34:03,42.805,6.029,-0.046,-0.004,-0.043,103.0,105.0,102.0,13.4,1505.3,325.2,-0.7,1.8,2470.305,13.32,0.046,265.0
2020-03-15T03:37:03,42.805,6.029,-0.04,0.007,-0.036,103.0,104.0,101.0,13.3,1505.3,325.2,-0.7,1.8,2470.324,13.32,0.04,279.9
2020-03-15T03:40:03,42.805,6.029,-0.036,-0.007,-0.028,103.0,103.0,101.0,13.4,1505.3,325.3,-0.7,1.8,2470.264,13.32,0.036,259.0
2020-03-15T03:43:03,42.805,6.029,-0.05,0.007,-0.047,105.0,105.0,100.0,13.4,1505.3,326.3,-0.7,1.8,2470.285,13.32,0.05,278.0
2020-03-15T03:46:03,42.805,6.029,-0.046,0.002,-0.039,103.0,105.0,101.0,13.4,1505.3,327.6,-0.7,1.8,2470.296,13.32,0.046,272.5
2020-03-15T03:49:03,42.805,6.029,-0.052,0.02,-0.068,104.0,105.0,99.0,13.3,1505.3,327.0,-0.7,1.8,2470.282,13.32,0.055,291.0
2020-03-15T03:52:03,42.805,6.029,-0.023,0.016,-0.034,103.0,106.0,101.0,13.3,1505.3,326.0,-0.7,1.8,2470.347,13.32,0.028,304.8
2020-03-15T03:55:03,42.805,6.029,-0.002,-0.004,-0.03,104.0,106.0,101.0,13.4,1505.3,326.0,-0.7,1.8,2470.295,13.32,0.004,206.6
2020-03-15T03:58:03,42.805,6.029,-0.052,0.008,-0.036,104.0,104.0,101.0,13.4,1505.3,326.1,-0.7,1.8,2470.268,13.32,0.052,278.7
2020-03-15T04:04:03,42.805,6.029,-0.049,-0.015,-0.031,104.0,104.0,100.0,13.4,1505.2,323.9,-0.8,1.8,2470.329,13.3,0.051,253.0
2020-03-15T04:07:03,42.805,6.029,-0.05,0.024,-0.04,104.0,105.0,101.0,13.3,1505.3,323.8,-0.7,1.8,2470.317,13.31,0.055,295.6
2020-03-15T04:10:03,42.805,6.029,-0.047,0.025,-0.042,104.0,105.0,99.0,13.4,1505.3,327.6,-0.7,1.9,2470.29,13.32,0.053,298.0
2020-03-15T04:13:03,42.805,6.029,-0.052,-0.008,-0.028,102.0,105.0,101.0,13.4,1505.3,325.6,-0.7,1.8,2470.265,13.32,0.052,261.3
2020-03-15T04:16:03,42.805,6.029,-0.008,0.013,-0.057,104.0,106.0,100.0,13.4,1505.3,323.8,-0.7,1.9,2470.25,13.32,0.015,328.4
2020-03-15T04:19:03,42.805,6.029,-0.019,0.005,-0.012,104.0,106.0,101.0,13.4,1505.3,323.9,-0.7,1.8,2470.284,13.32,0.019,284.7
2020-03-15T04:22:03,42.805,6.029,-0.023,0.01,-0.006,103.0,105.0,101.0,13.3,1505.3,324.7,-0.7,1.8,2470.27,13.32,0.025,293.5
2020-03-15T04:25:03,42.805,6.029,-0.003,0.022,-0.044,103.0,105.0,101.0,13.4,1505.3,324.9,-0.7,1.8,2470.306,13.32,0.022,352.2
2020-03-15T04:28:03,42.805,6.029,-0.038,0.002,-0.066,102.0,105.0,100.0,13.3,1505.3,325.3,-0.7,1.9,2470.295,13.32,0.038,273.0
2020-03-15T04:31:03,42.805,6.029,-0.045,-0.001,-0.029,103.0,105.0,101.0,13.4,1505.3,327.0,-0.7,1.8,2470.278,13.32,0.045,268.7
2020-03-15T04:34:03,42.805,6.029,-0.037,0.007,-0.027,104.0,109.0,101.0,13.4,1505.3,326.4,-0.7,1.8,2470.25,13.32,0.037,280.7
2020-03-15T04:37:03,42.805,6.029,-0.034,-0.001,-0.018,103.0,104.0,101.0,13.3,1505.3,327.0,-0.7,1.9,2470.246,13.32,0.034,268.3
2020-03-15T04:40:03,42.805,6.029,-0.02,0.015,-0.056,104.0,105.0,101.0,13.4,1505.3,325.4,-0.7,1.8,2470.284,13.32,0.025,306.9
2020-03-15T04:43:03,42.805,6.029,-0.035,-0.006,-0.022,104.0,104.0,101.0,13.4,1505.3,325.7,-0.7,1.8,2470.276,13.32,0.035,260.3
2020-03-15T04:46:03,42.805,6.029,-0.051,0.009,-0.046,103.0,104.0,102.0,13.4,1505.3,326.3,-0.7,1.8,2470.247,13.32,0.051,280.0
2020-03-15T04:49:03,42.805,6.029,0.001,0.015,-0.023,103.0,106.0,101.0,13.4,1505.3,326.5,-0.7,1.8,2470.293,13.32,0.015,3.8
2020-03-15T04:52:03,42.805,6.029,-0.033,0.003,-0.03,102.0,104.0,101.0,13.4,1505.3,325.7,-0.7,1.8,2470.283,13.32,0.033,275.2
2020-03-15T04:55:03,42.805,6.029,-0.046,0.009,-0.031,103.0,105.0,101.0,13.4,1505.3,326.5,-0.7,1.8,2470.276,13.32,0.046,281.1
2020-03-15T04:58:03,42.805,6.029,0.004,0.006,-0.025,103.0,105.0,100.0,13.3,1505.3,326.1,-0.7,1.8,2470.269,13.32,0.007,33.7
2020-03-15T05:04:03,42.805,6.029,-0.041,0.0,-0.1,103.0,104.0,101.0,13.4,1505.2,325.1,-0.8,1.8,2470.302,13.3,0.041,270.0
2020-03-15T05:07:03,42.805,6.029,-0.038,0.01,-0.034,103.0,105.0,100.0,13.4,1505.3,326.7,-0.7,1.8,2470.261,13.31,0.039,284.7
2020-03-15T05:10:03,42.805,6.029,-0.029,-0.004,-0.055,102.0,104.0,101.0,13.4,1505.3,327.4,-0.7,1.8,2470.28,13.32,0.029,262.2
2020-03-15T05:13:03,42.805,6.029,-0.045,-0.004,-0.022,104.0,104.0,100.0,13.4,1505.3,326.3,-0.7,1.8,2470.271,13.32,0.045,264.9
2020-03-15T05:16:03,42.805,6.029,-0.061,0.0,-0.048,102.0,104.0,102.0,13.3,1505.3,324.0,-0.7,1.8,2470.275,13.32,0.06,270.0
2020-03-15T05:19:03,42.805,6.029,-0.023,-0.014,-0.051,103.0,105.0,101.0,13.3,1505.3,324.8,-0.7,1.8,2470.259,13.32,0.026,238.7
2020-03-15T05:22:03,42.805,6.029,-0.05,-0.01,-0.08,103.0,104.0,100.0,13.4,1505.3,327.8,-0.7,1.8,2470.254,13.32,0.05,258.7
2020-03-15T05:25:03,42.805,6.029,-0.02,0.007,-0.029,103.0,104.0,102.0,13.4,1505.3,327.1,-0.7,1.8,2470.252,13.32,0.021,289.3
2020-03-15T05:28:03,42.805,6.029,-0.043,-0.005,-0.074,103.0,104.0,100.0,13.4,1505.3,324.4,-0.7,1.8,2470.274,13.32,0.043,263.4
2020-03-15T05:31:03,42.805,6.029,-0.038,0.018,-0.063,102.0,105.0,100.0,13.3,1505.3,326.1,-0.7,1.8,2470.268,13.32,0.042,295.3
2020-03-15T05:34:03,42.805,6.029,-0.032,0.004,-0.015,103.0,106.0,100.0,13.4,1505.3,323.9,-0.7,1.8,2470.286,13.32,0.032,277.1
2020-03-15T05:37:03,42.805,6.029,-0.026,-0.008,-0.024,103.0,106.0,99.0,13.4,1505.3,323.1,-0.7,1.9,2470.279,13.32,0.027,252.9
2020-03-15T05:40:03,42.805,6.029,-0.026,0.022,-0.054,103.0,104.0,101.0,13.3,1505.3,325.3,-0.7,1.9,2470.262,13.32,0.034,310.2
2020-03-15T05:43:03,42.805,6.029,-0.031,-0.001,-0.06,104.0,105.0,100.0,13.4,1505.3,326.6,-0.7,1.8,2470.247,13.32,0.031,268.2
2020-03-15T05:46:03,42.805,6.029,-0.043,-0.002,-0.033,104.0,105.0,100.0,13.4,1505.3,323.3,-0.7,1.8,2470.245,13.32,0.043,267.3
2020-03-15T05:49:03,42.805,6.029,-0.008,-0.007,-0.044,104.0,105.0,100.0,13.4,1505.3,325.2,-0.7,1.9,2470.26,13.32,0.01,228.8
2020-03-15T05:52:03,42.805,6.029,-0.044,0.004,-0.071,102.0,104.0,101.0,13.4,1505.3,326.7,-0.7,1.8,2470.269,13.32,0.044,275.2
2020-03-15T05:55:03,42.805,6.029,-0.046,0.012,-0.023,103.0,104.0,101.0,13.4,1505.3,323.9,-0.7,1.8,2470.269,13.32,0.047,284.6
2020-03-15T05:58:03,42.805,6.029,-0.027,0.012,-0.016,103.0,105.0,101.0,13.4,1505.3,328.7,-0.7,1.9,2470.26,13.32,0.029,294.0
2020-03-15T06:04:03,42.805,6.029,-0.014,0.0,-0.007,103.0,104.0,101.0,13.4,1505.3,327.8,-0.7,1.8,2470.306,13.31,0.014,270.0
2020-03-15T06:07:03,42.805,6.029,-0.033,0.01,-0.041,103.0,104.0,100.0,13.4,1505.3,325.1,-0.7,1.8,2470.273,13.31,0.034,286.9
2020-03-15T06:10:03,42.805,6.029,-0.016,0.008,-0.059,104.0,104.0,100.0,13.4,1505.3,324.0,-0.7,1.9,2470.258,13.32,0.017,296.6
2020-03-15T06:13:03,42.805,6.029,-0.035,0.014,-0.037,102.0,105.0,101.0,13.3,1505.3,325.3,-0.7,1.8,2470.274,13.32,0.037,291.8
2020-03-15T06:16:03,42.805,6.029,-0.017,0.022,-0.026,103.0,105.0,100.0,13.4,1505.3,323.0,-0.7,1.8,2470.253,13.32,0.027,322.3
2020-03-15T06:19:03,42.805,6.029,-0.029,0.024,-0.067,102.0,106.0,101.0,13.3,1505.3,324.6,-0.7,1.8,2470.257,13.32,0.037,309.6
2020-03-15T06:22:03,42.805,6.029,-0.008,0.008,-0.033,103.0,104.0,100.0,13.3,1505.3,324.4,-0.7,1.8,2470.243,13.32,0.011,315.0
2020-03-15T06:25:03,42.805,6.029,-0.04,0.012,-0.026,104.0,104.0,101.0,13.3,1505.3,325.9,-0.7,1.9,2470.244,13.32,0.041,286.7
2020-03-15T06:28:03,42.805,6.029,-0.024,-0.016,-0.062,103.0,104.0,100.0,13.4,1505.3,327.8,-0.7,1.8,2470.237,13.32,0.028,236.3
2020-03-15T06:31:03,42.805,6.029,-0.033,-0.007,-0.012,104.0,105.0,100.0,13.3,1505.3,323.0,-0.7,1.8,2470.262,13.32,0.033,258.0
2020-03-15T06:34:03,42.805,6.029,-0.038,-0.016,-0.08,103.0,105.0,101.0,13.4,1505.3,326.2,-0.7,1.8,2470.259,13.32,0.041,247.2
2020-03-15T06:37:03,42.805,6.029,-0.01,0.001,-0.064,103.0,104.0,100.0,13.4,1505.3,325.6,-0.7,1.8,2470.246,13.32,0.01,275.7
2020-03-15T06:40:03,42.805,6.029,-0.032,0.017,-0.037,103.0,103.0,101.0,13.4,1505.3,324.7,-0.7,1.8,2470.226,13.32,0.036,298.0
2020-03-15T06:43:03,42.805,6.029,-0.028,-0.002,-0.04,103.0,105.0,101.0,13.4,1505.3,324.0,-0.7,1.8,2470.271,13.32,0.028,265.9
2020-03-15T06:46:03,42.805,6.029,-0.002,0.004,-0.043,103.0,104.0,100.0,13.3,1505.3,327.0,-0.7,1.8,2470.244,13.32,0.004,333.4
2020-03-15T06:49:03,42.805,6.029,-0.021,0.006,-0.037,104.0,104.0,100.0,13.4,1505.3,326.4,-0.7,1.8,2470.284,13.33,0.021,285.9
2020-03-15T06:52:03,42.805,6.029,-0.005,0.013,-0.035,103.0,103.0,101.0,13.4,1505.3,328.3,-0.7,1.8,2470.27,13.33,0.013,339.0
2020-03-15T06:55:03,42.805,6.029,-0.017,0.013,-0.035,103.0,104.0,102.0,13.4,1505.3,328.0,-0.7,1.8,2470.243,13.33,0.021,307.4
2020-03-15T06:58:03,42.805,6.029,-0.031,0.007,-0.029,103.0,104.0,100.0,13.4,1505.3,327.7,-0.7,1.8,2470.237,13.33,0.031,282.7
2020-03-15T07:04:03,42.805,6.029,-0.021,-0.012,-0.059,102.0,105.0,101.0,13.4,1505.3,327.8,-0.7,1.8,2470.286,13.31,0.024,240.3
2020-03-15T07:07:03,42.805,6.029,-0.017,0.008,-0.02,103.0,103.0,100.0,13.4,1505.3,324.5,-0.7,1.8,2470.306,13.31,0.018,295.2
2020-03-15T07:10:03,42.805,6.029,-0.024,-0.006,-0.01,102.0,105.0,101.0,13.4,1505.3,326.2,-0.7,1.8,2470.293,13.32,0.024,256.0
2020-03-15T07:13:03,42.805,6.029,-0.018,0.013,-0.032,103.0,104.0,100.0,13.4,1505.3,323.5,-0.7,1.8,2470.259,13.32,0.022,305.8
2020-03-15T07:19:03,42.805,6.029,-0.046,-0.007,-0.07,104.0,104.0,99.0,13.4,1505.2,328.7,-0.7,1.8,2470.282,13.3,0.046,261.3
2020-03-15T07:22:03,42.805,6.029,0.004,-0.011,-0.06,103.0,104.0,101.0,13.3,1505.3,324.9,-0.7,1.8,2470.292,13.31,0.011,160.0
2020-03-15T07:25:03,42.805,6.029,-0.019,0.002,-0.04,103.0,105.0,101.0,13.4,1505.3,324.6,-0.7,1.9,2470.262,13.32,0.019,276.0
2020-03-15T07:28:03,42.805,6.029,-0.026,-0.009,-0.023,103.0,104.0,100.0,13.4,1505.3,324.9,-0.7,1.9,2470.315,13.32,0.027,250.9
2020-03-15T07:31:03,42.805,6.029,-0.005,0.004,-0.044,104.0,106.0,100.0,13.4,1505.3,328.0,-0.7,1.8,2470.273,13.32,0.006,308.7
2020-03-15T07:34:03,42.805,6.029,0.0,0.022,0.003,103.0,105.0,101.0,13.4,1505.3,325.9,-0.7,1.8,2470.271,13.32,0.022,0.0
2020-03-15T07:37:02,42.805,6.029,-0.039,0.016,-0.077,103.0,105.0,101.0,13.4,1505.3,328.1,-0.7,1.8,2470.263,13.32,0.042,292.3
2020-03-15T07:40:03,42.805,6.029,-0.042,0.008,-0.036,102.0,104.0,101.0,13.4,1505.3,327.9,-0.7,1.8,2470.256,13.33,0.042,280.8
2020-03-15T07:43:03,42.805,6.029,-0.025,0.01,-0.044,102.0,104.0,100.0,13.3,1505.3,324.3,-0.7,1.9,2470.25,13.32,0.026,291.8
2020-03-15T07:46:03,42.805,6.029,-0.037,0.001,-0.017,103.0,104.0,100.0,13.3,1505.3,324.7,-0.7,1.8,2470.248,13.32,0.037,271.5
2020-03-15T07:49:03,42.805,6.029,-0.025,-0.002,-0.039,103.0,106.0,100.0,13.4,1505.3,323.8,-0.7,1.8,2470.286,13.32,0.025,265.4
2020-03-15T07:52:03,42.805,6.029,-0.017,-0.006,-0.071,102.0,106.0,101.0,13.3,1505.3,325.2,-0.7,1.9,2470.29,13.32,0.018,250.6
2020-03-15T07:55:03,42.805,6.029,-0.004,-0.017,-0.029,102.0,105.0,100.0,13.4,1505.3,323.4,-0.7,1.8,2470.312,13.33,0.017,193.2
2020-03-15T07:58:03,42.805,6.029,-0.022,0.001,-0.027,103.0,104.0,101.0,13.4,1505.3,328.8,-0.7,1.8,2470.309,13.33,0.022,272.6
2020-03-15T08:04:03,42.805,6.029,-0.018,-0.002,-0.033,102.0,104.0,100.0,13.3,1505.3,324.9,-0.7,1.8,2470.289,13.31,0.018,263.7
2020-03-15T08:07:03,42.805,6.029,-0.047,0.004,-0.041,103.0,103.0,99.0,13.4,1505.3,325.0,-0.8,1.8,2470.299,13.31,0.047,274.9
2020-03-15T08:10:03,42.805,6.029,-0.015,-0.021,-0.03,103.0,105.0,101.0,13.4,1505.3,325.5,-0.7,1.9,2470.316,13.32,0.025,215.5
2020-03-15T08:13:03,42.805,6.029,-0.009,-0.002,-0.049,102.0,105.0,101.0,13.4,1505.3,326.9,-0.7,1.9,2470.323,13.32,0.009,257.5
2020-03-15T08:16:03,42.805,6.029,-0.023,-0.006,-0.045,103.0,103.0,101.0,13.4,1505.3,325.8,-0.7,1.9,2470.295,13.32,0.023,255.4
2020-03-15T08:19:03,42.805,6.029,0.0,0.013,-0.054,103.0,104.0,100.0,13.3,1505.3,324.4,-0.7,1.9,2470.302,13.32,0.013,0.0
2020-03-15T08:22:03,42.805,6.029,-0.018,0.005,-0.05,101.0,105.0,101.0,13.4,1505.3,324.4,-0.7,1.8,2470.338,13.32,0.018,285.5
2020-03-15T08:25:03,42.805,6.029,-0.017,0.008,-0.05,103.0,105.0,101.0,13.4,1505.3,325.0,-0.7,1.8,2470.277,13.32,0.018,295.2
2020-03-15T08:28:03,42.805,6.029,-0.025,-0.014,-0.021,103.0,106.0,100.0,13.4,1505.3,326.3,-0.7,1.8,2470.266,13.32,0.028,240.7
2020-03-15T08:31:03,42.805,6.029,-0.04,-0.01,-0.025,102.0,104.0,101.0,13.4,1505.3,325.9,-0.7,1.8,2470.284,13.32,0.041,256.0
2020-03-15T08:34:03,42.805,6.029,-0.048,0.0,-0.08,104.0,106.0,100.0,13.4,1505.3,327.7,-0.7,1.8,2470.296,13.32,0.048,270.0
2020-03-15T08:37:03,42.805,6.029,0.004,0.006,-0.009,104.0,104.0,101.0,13.4,1505.3,323.7,-0.7,1.8,2470.265,13.33,0.007,33.7
2020-03-15T08:43:02,42.805,6.029,-0.037,-0.002,-0.036,102.0,105.0,100.0,13.4,1505.3,324.2,-0.8,1.8,2470.361,13.31,0.037,266.9
2020-03-15T08:46:03,42.805,6.029,-0.006,0.01,-0.03,103.0,106.0,100.0,13.4,1505.3,326.9,-0.8,1.8,2470.35,13.31,0.011,329.0
2020-03-15T08:49:03,42.805,6.029,-0.021,-0.008,-0.065,102.0,105.0,100.0,13.4,1505.3,326.6,-0.7,1.9,2470.318,13.32,0.022,249.1
2020-03-15T08:52:03,42.805,6.029,-0.037,0.006,-0.044,105.0,103.0,100.0,13.3,1505.3,327.4,-0.7,1.8,2470.335,13.32,0.037,279.2
2020-03-15T08:55:03,42.805,6.029,-0.023,0.005,-0.072,102.0,104.0,101.0,13.3,1505.3,324.2,-0.7,1.8,2470.346,13.32,0.023,282.3
2020-03-15T08:58:03,42.805,6.029,-0.014,-0.001,-0.02,104.0,105.0,101.0,13.4,1505.3,326.7,-0.7,1.8,2470.339,13.32,0.014,265.9
2020-03-15T09:04:03,42.805,6.029,-0.019,0.02,-0.027,104.0,104.0,101.0,13.3,1505.2,328.1,-0.7,1.8,2470.381,13.3,0.027,316.5
2020-03-15T09:07:03,42.805,6.029,-0.051,0.006,-0.038,103.0,105.0,101.0,13.4,1505.3,326.5,-0.8,1.8,2470.361,13.31,0.051,276.7
2020-03-15T09:10:03,42.805,6.029,-0.019,-0.003,-0.041,103.0,104.0,100.0,13.3,1505.3,328.4,-0.8,1.8,2470.355,13.32,0.019,261.0
2020-03-15T09:13:03,42.805,6.029,-0.022,-0.013,-0.002,103.0,105.0,100.0,13.3,1505.3,323.4,-0.7,1.8,2470.323,13.32,0.025,239.4
2020-03-15T09:16:03,42.805,6.029,-0.029,-0.009,-0.05,105.0,103.0,100.0,13.4,1505.3,326.7,-0.7,1.8,2470.31,13.32,0.03,252.8
2020-03-15T09:19:03,42.805,6.029,-0.027,0.0,-0.047,103.0,106.0,101.0,13.4,1505.3,324.2,-0.7,1.8,2470.3,13.32,0.026,270.0
2020-03-15T09:22:03,42.805,6.029,-0.04,0.02,-0.029,103.0,104.0,101.0,13.4,1505.3,325.4,-0.7,1.8,2470.353,13.32,0.044,296.6
2020-03-15T09:25:03,42.805,6.029,-0.024,0.01,-0.038,103.0,103.0,101.0,13.4,1505.3,324.1,-0.7,1.8,2470.316,13.32,0.026,292.6
2020-03-15T09:28:03,42.805,6.029,-0.008,0.006,-0.021,104.0,106.0,100.0,13.4,1505.3,325.2,-0.7,1.8,2470.373,13.32,0.01,306.9
2020-03-15T09:31:03,42.805,6.029,-0.02,0.002,-0.033,102.0,105.0,100.0,13.4,1505.3,324.9,-0.7,1.8,2470.318,13.33,0.02,275.7
2020-03-15T09:34:03,42.805,6.029,-0.032,0.0,-0.049,103.0,104.0,101.0,13.3,1505.3,326.2,-0.7,1.8,2470.328,13.33,0.032,270.0
2020-03-15T09:37:03,42.805,6.029,-0.04,0.02,-0.042,104.0,104.0,99.0,13.4,1505.3,326.9,-0.7,1.8,2470.301,13.32,0.044,296.6
2020-03-15T09:40:03,42.805,6.029,-0.025,-0.002,-0.052,102.0,104.0,101.0,13.4,1505.3,327.1,-0.7,1.8,2470.401,13.32,0.025,265.4
2020-03-15T09:43:03,42.805,6.029,-0.012,0.007,-0.014,104.0,105.0,101.0,13.4,1505.3,323.5,-0.7,1.8,2470.36,13.32,0.013,300.3
2020-03-15T09:46:03,42.805,6.029,-0.004,0.002,-0.049,104.0,104.0,100.0,13.4,1505.3,327.0,-0.8,1.8,2470.369,13.32,0.004,296.6
2020-03-15T09:49:03,42.805,6.029,-0.002,0.002,-0.045,104.0,107.0,100.0,13.4,1505.3,326.4,-0.7,1.8,2470.351,13.32,0.002,315.0
2020-03-15T09:52:03,42.805,6.029,-0.028,-0.019,-0.03,103.0,103.0,101.0,13.4,1505.3,327.6,-0.7,1.8,2470.359,13.32,0.033,235.8
2020-03-15T09:55:03,42.805,6.029,-0.028,-0.008,-0.04,103.0,104.0,102.0,13.4,1505.3,323.5,-0.7,1.8,2470.392,13.33,0.029,254.1
2020-03-15T09:58:03,42.805,6.029,-0.025,-0.001,-0.051,104.0,104.0,101.0,13.4,1505.3,324.6,-0.7,1.9,2470.363,13.33,0.025,267.7